• Processing (Info)

  • MPEC 2006-L14 : COMET P/2006 F4 (SPACEWATCH)

    The following Minor Planet Electronic Circular may be linked-to from your own Web pages, but must not otherwise be redistributed electronically.

    A form allowing access to any MPEC is at the bottom of this page.


    Read MPEC 2006-L13 Read MPEC 2006-L15


    M.P.E.C. 2006-L14                                Issued 2006 June 2, 14:54 UT
    
         The Minor Planet Electronic Circulars contain information on unusual
             minor planets and routine data on comets.  They are published
       on behalf of Commission 20 of the International Astronomical Union by the
              Minor Planet Center, Smithsonian Astrophysical Observatory,
                              Cambridge, MA 02138, U.S.A.
    
                      Supported in part by the Brinson Foundation
                      Supported in part by the TABASGO Foundation
                 Prepared using the Tamkin Foundation Computer Network
    
                                  MPC@CFA.HARVARD.EDU
              URL http://cfa-www.harvard.edu/iau/mpc.html  ISSN 1523-6714
    
                             COMET P/2006 F4 (SPACEWATCH)
    
    Observations:
        PK06F040  C2006 05 27.89664 13 54 56.64 +01 21 39.5          19.7 N EL014130
        PK06F040  C2006 05 31.88615 13 54 48.91 +01 27 22.9          19.6 T EL014561
        PK06F040  C2006 05 31.88979 13 54 48.90 +01 27 23.5          19.4 T EL014561
        PK06F040  C2006 05 31.89341 13 54 48.91 +01 27 22.8          19.5 T EL014561
    
    Observer details:
    130 Lumezzane.  Observers M. Casali, W. Marinello, M. Micheli, G. Pizzetti,
        A. Soffiantini.  Measurers M. Micheli, G. Pizzetti.  0.40-m f/4.5
        reflector + CCD.
    561 Piszkesteto.  Observer J. Kelemen.  0.6-m Schmidt + CCD.
    
    Orbital elements:
        P/2006 F4 (Spacewatch)
    T 2006 May 3.4927 TT                                    MPC
    q   2.339799             (2000.0)            P               Q
    n   0.1486364      Peri.   31.3475      -0.8155405      +0.5784970
    a   3.529550       Node   184.0973      -0.5653700      -0.8021271
    e   0.337083       Incl.   12.3862      -0.1234927      -0.1480991
    P   6.63
    From 45 observations 2006 Mar. 26-May 31.
    
    Brian G. Marsden             (C) Copyright 2006 MPC           M.P.E.C. 2006-L14
    

    Read MPEC 2006-L13 Read MPEC 2006-L15


    MPEC number:

    Enter an MPEC number in one of the following forms:

    • 1997-B01 (the full form)
    • J97B01 (the packed version of the full form)
    • B01 (the abbreviated form)